Hourly Data Report for October 02, 2017

All times are specified in Local Standard Time (LST). Add 1 hour to adjust for Daylight Saving Time where and when it is observed.

KUGLUKTUK A
NUNAVUT

67°49'00.000" N
115°08'38.000" W
22.60 m
2300903
71938
YCO

Download Data

Hourly Data (October 2017)
Hourly Data Report for October 2, 2017
Temp Definition
°C
Dew Point Temp Definition
°C
Rel Hum Definition
%
Wind Dir Definition
10's deg

Wind Spd Definition
km/h
Visibility Definition
km
Stn Press Definition
kPa
Hmdx Definition


Wind Chill Definition


Weather Definition


TIME
00:00 Legend Double Dagger 0.2 -3.2 78 28 23 24.1 101.48     LegendNANA
01:00 Legend Double Dagger -0.2 -3.4 79 27 28 24.1 101.52   -7 LegendNANA
02:00 Legend Double Dagger -0.5 -3.5 80 26 28 24.1 101.56   -7 Mostly Cloudy
03:00 Legend Double Dagger -1.3 -4.4 79 27 27 24.1 101.60   -8 LegendNANA
04:00 Legend Double Dagger -0.9 -4.2 79 26 31 24.1 101.62   -8 LegendNANA
05:00 Legend Double Dagger -1.0 -4.9 75 28 34 24.1 101.64   -8 Mainly Clear
06:00 Legend Double Dagger -1.5 -5.0 77 28 34 24.1 101.65   -9 LegendNANA
07:00 Legend Double Dagger -2.3 -5.2 81 26 28 24.1 101.67   -9 LegendNANA
08:00 Legend Double Dagger -2.4 -5.2 81 24 25 24.1 101.70   -9 Mainly Clear
09:00 Legend Double Dagger -0.7 -5.0 73 26 30 24.1 101.71   -7 LegendNANA
10:00 Legend Double Dagger 0.8 -4.7 67 28 34 24.1 101.72     LegendNANA
11:00 Legend Double Dagger 1.0 -4.5 67 30 42 24.1 101.76     Mostly Cloudy
12:00 Legend Double Dagger 1.4 -4.3 66 29 40 24.1 101.82     LegendNANA
13:00 Legend Double Dagger 1.3 -3.2 72 32 41 24.1 101.85     LegendNANA
14:00 Legend Double Dagger 1.0 -4.7 66 30 34 24.1 101.94     Mostly Cloudy
15:00 Legend Double Dagger 0.8 -4.2 69 33 42 24.1 101.97     LegendNANA
16:00 Legend Double Dagger 0.3 -4.2 72 30 27 24.1 102.00     Drizzle
17:00 Legend Double Dagger -0.3 -4.5 74 31 35 24.1 101.97   -7 Snow Grains
18:00 Legend Double Dagger -0.5 -4.6 73 29 25 24.1 101.95   -7 LegendNANA
19:00 Legend Double Dagger -0.5 -3.9 78 26 19 24.1 101.94   -6 LegendNANA
20:00 Legend Double Dagger -0.8 -4.1 78 26 21 24.1 101.94   -6 Cloudy
21:00 Legend Double Dagger -1.0 -4.2 79 27 18 24.1 101.91   -6 Snow Grains
22:00 Legend Double Dagger -0.9 -4.1 79 28 17 24.1 101.92   -6 Snow Grains
23:00 Legend Double Dagger -1.3 -3.6 84 26 18 16.1 101.90   -7 Snow Grains

Notes on Data Quality.

Legend

  • E = Estimated
  • M = Missing
  • NA = Not Available
  • ‡ = Partner data that is not subject to review by the National Climate Archives
Date modified: